Laurinburg-Maxton, NC

8:45 AM EDT on October 22, 2017 (GMT -0400)
Laurinburg-Maxton

Weather History for KMEB - September, 2013

Change the Weather History Date:

Thursday, September 26, 2013

  Actual Average (KHFF) Record (KHFF)
Temperature  
Mean Temperature 70 °F -  
Max Temperature 80 °F 76 °F 87 °F (2007)
Min Temperature 60 °F 58 °F 51 °F (2012)
Cooling Degree Days 5    
Growing Degree Days 20 (Base 50)    
Moisture  
Dew Point 56 °F    
Average Humidity 70    
Maximum Humidity 97    
Minimum Humidity 34    
Precipitation  
Precipitation 0.07 in - - ()
Sea Level Pressure  
Sea Level Pressure 29.93 in    
Wind  
Wind Speed 5 mph (NE)    
Max Wind Speed 15 mph    
Max Gust Speed 23 mph    
Visibility 8 miles    
Events Rain    
Averages and records for this station are not official NWS values.
T = Trace of Precipitation, MM = Missing Value Source: NWS Daily Summary

Daily Weather History Graph

Daily Weather History Graph

Search for Another Location

Airport or City:

Trip Planner

Search our weather history database for the weather conditions in past years. The results will help you decide how hot, cold, wet, or windy it might be!

Date:

Astronomy

Sep. 26, 2013 Rise Set
Actual Time 7:08 AM EDT 7:08 PM EDT
Civil Twilight 6:43 AM EDT 7:33 PM EDT
Nautical Twilight 6:14 AM EDT 8:02 PM EDT
Astronomical Twilight 5:44 AM EDT 8:32 PM EDT
Moon No Moon Rise 1:47 PM EDT (9/26)
Length of Visible Light 12h 49m
Length of Day
11h 59m
Waning Gibbous, 55% of the Moon is Illuminated
Sep 26
Waning Gibbous
Sep 26
Last Quarter
Oct 4
New
Oct 11
First Quarter
Oct 18
Full

Hourly Weather History & Observations

Time (EDT) Temp. Dew Point Humidity Pressure Visibility Wind Dir Wind Speed Gust Speed Precip Events Conditions
12:52 AM 63.0 °F 61.0 °F 93% 29.89 in 9.0 mi Calm Calm - 0.00 in   Overcast
1:52 AM 63.0 °F 61.0 °F 93% 29.88 in 8.0 mi NNE 3.5 mph - 0.01 in Rain Light Rain
2:52 AM 63.0 °F 61.0 °F 93% 29.87 in 9.0 mi Calm Calm - 0.01 in   Overcast
3:52 AM 62.1 °F 61.0 °F 96% 29.88 in 6.0 mi North 3.5 mph - 0.01 in   Overcast
4:52 AM 63.0 °F 62.1 °F 97% 29.88 in 5.0 mi Calm Calm - 0.03 in Rain Light Rain
5:52 AM 63.0 °F 62.1 °F 97% 29.88 in 4.0 mi Calm Calm - 0.00 in   Overcast
6:52 AM 63.0 °F 62.1 °F 97% 29.90 in 4.0 mi North 4.6 mph - N/A   Overcast
7:52 AM 63.0 °F 62.1 °F 97% 29.91 in 4.0 mi NNE 4.6 mph - N/A   Overcast
8:52 AM 64.0 °F 62.1 °F 93% 29.92 in 5.0 mi NE 8.1 mph - N/A   Scattered Clouds
9:52 AM 68.0 °F 62.1 °F 81% 29.94 in 10.0 mi NE 6.9 mph - N/A   Clear
10:52 AM 71.1 °F 60.1 °F 68% 29.95 in 10.0 mi East 8.1 mph - N/A   Clear
11:52 AM 73.9 °F 57.0 °F 55% 29.95 in 10.0 mi ENE 9.2 mph - 0.01 in   Partly Cloudy
12:52 PM 77.0 °F 53.1 °F 43% 29.94 in 10.0 mi East 9.2 mph - N/A   Partly Cloudy
1:52 PM 78.1 °F 50.0 °F 37% 29.92 in 10.0 mi NE 12.7 mph - N/A   Clear
2:52 PM 79.0 °F 48.9 °F 35% 29.92 in 10.0 mi NNE 15.0 mph 23.0 mph N/A   Clear
3:52 PM 79.0 °F 48.0 °F 34% 29.91 in 10.0 mi NE 13.8 mph - N/A   Clear
4:52 PM 79.0 °F 48.0 °F 34% 29.91 in 10.0 mi NNE 13.8 mph - N/A   Partly Cloudy
5:52 PM 75.9 °F 46.9 °F 36% 29.93 in 10.0 mi NE 11.5 mph - N/A   Clear
6:52 PM 71.1 °F 51.1 °F 49% 29.95 in 10.0 mi ENE 6.9 mph - N/A   Clear
7:52 PM 66.0 °F 53.1 °F 63% 29.96 in 10.0 mi NE 5.8 mph - N/A   Clear
8:52 PM 64.0 °F 53.1 °F 67% 29.99 in 10.0 mi North 4.6 mph - N/A   Clear
9:52 PM 63.0 °F 54.0 °F 72% 30.00 in 10.0 mi NNE 8.1 mph - N/A   Clear
10:52 PM 61.0 °F 54.0 °F 78% 30.01 in 10.0 mi NNE 4.6 mph - N/A   Clear
11:52 PM 60.1 °F 55.0 °F 83% 30.02 in 10.0 mi NNE 6.9 mph - N/A   Clear